EW1970 Weather Reports


time (UTC)temp
C
wind
direction
speed
KPH
gust
KPH
rain 1hr
cm
rain 24hr
cm
rain mn
cm
humidity
%
barometer
mb
20260902123007 23 252 0.0 0.0 0.00 0.00 0.00 84 1015.8
20260902121514 23 252 0.0 0.0 0.00 0.00 0.00 83 1015.6
20260902120018 23 252 0.0 0.0 0.00 0.00 0.00 83 1015.5
20260902114524 23 252 0.0 0.0 0.00 0.00 0.00 82 1015.5
20260902113004 24 252 0.0 0.0 0.00 0.00 0.00 81 1015.5
20260902111515 24 252 0.0 0.0 0.00 0.00 0.00 81 1015.4
20260902110015 24 252 0.0 0.0 0.00 0.00 0.00 80 1015.3
20260902104521 25 252 0.0 0.0 0.00 0.00 0.00 79 1015.4
20260902103036 25 252 0.0 3.2 0.00 0.00 0.00 78 1015.5
20260902101506 25 252 0.0 3.2 0.00 0.00 0.00 77 1015.5
20260902100014 25 252 0.0 3.2 0.00 0.00 0.00 78 1015.6
20260902094517 25 252 0.0 1.6 0.00 0.00 0.00 80 1015.6
20260902093023 25 235 0.0 3.2 0.00 0.00 0.00 80 1015.6
20260902091556 25 237 0.0 3.2 0.00 0.00 0.00 80 1015.6
20260902090010 25 25 0.0 0.0 0.00 0.00 0.00 80 1015.7
20260902084516 25 25 0.0 0.0 0.00 0.00 0.00 78 1015.6
20260902083021 25 25 0.0 0.0 0.00 0.00 0.00 78 1015.6
20260902081533 25 25 0.0 0.0 0.00 0.00 0.00 78 1015.9
20260902080037 25 25 0.0 0.0 0.00 0.00 0.00 77 1015.8
20260902074516 25 52 0.0 0.0 0.00 0.00 0.00 77 1015.9
20260902073022 26 52 0.0 0.0 0.00 0.00 0.00 76 1015.9
20260902071549 26 52 0.0 0.0 0.00 0.00 0.00 75 1015.9
20260902070031 26 52 0.0 0.0 0.00 0.00 0.00 74 1016.0
20260902064531 26 52 0.0 1.6 0.00 0.00 0.00 74 1016.1
20260902063025 27 77 0.0 0.0 0.00 0.00 0.00 73 1016.1
20260902061539 27 77 0.0 3.2 0.00 0.00 0.00 72 1016.0
20260902060032 27 132 0.0 1.6 0.00 0.00 0.00 71 1016.0
20260902054541 27 110 0.0 3.2 0.00 0.00 0.00 69 1015.9
20260902053033 28 136 0.0 3.2 0.00 0.00 0.00 68 1015.7
20260902051526 28 141 0.0 3.2 0.00 0.00 0.00 67 1015.8
20260902050040 28 98 0.0 3.2 0.00 0.00 0.00 66 1015.8
20260902044532 29 148 0.0 8.0 0.00 0.00 0.00 65 1015.8
20260902043033 29 167 0.0 6.4 0.00 0.00 0.00 64 1015.8
20260902041505 29 108 0.0 4.8 0.00 0.00 0.00 63 1015.7
20260902040004 30 114 0.0 3.2 0.00 0.00 0.00 62 1015.7
20260902034507 30 126 0.0 3.2 0.00 0.00 0.00 61 1015.5
20260902033011 30 142 0.0 4.8 0.00 0.00 0.00 61 1015.3
20260902031517 30 146 0.0 3.2 0.00 0.00 0.00 60 1015.2
20260902030004 30 157 0.0 8.0 0.00 0.00 0.00 59 1014.9
20260902024504 30 258 0.0 4.8 0.00 0.00 0.00 58 1014.5
20260902023015 31 78 0.0 3.2 0.00 0.00 0.00 57 1014.3
20260902021513 30 64 0.0 6.4 0.00 0.00 0.00 57 1014.0
20260902020023 30 129 0.0 4.8 0.00 0.00 0.00 56 1013.9
20260902014504 31 95 0.0 6.4 0.00 0.00 0.00 54 1013.8
20260902013005 31 126 0.0 3.2 0.00 0.00 0.00 53 1013.6
20260902011521 31 159 0.0 6.4 0.00 0.00 0.00 51 1013.5
20260902010036 32 49 0.0 4.8 0.00 0.00 0.00 50 1013.4
20260902004527 32 182 0.0 9.7 0.00 0.00 0.00 50 1013.5
20260902003004 33 157 0.0 11.3 0.00 0.00 0.00 47 1013.6
20260902001512 33 74 0.0 9.7 0.00 0.00 0.00 46 1013.6
20260902000024 34 65 0.0 6.4 0.00 0.00 0.00 42 1013.5
20260901234526 35 142 0.0 4.8 0.00 0.00 0.00 42 1013.5
20260901233027 35 143 0.0 6.4 0.00 0.00 0.00 42 1013.5
20260901231508 35 156 0.0 12.9 0.00 0.00 0.00 42 1013.5
20260901230026 36 63 0.0 8.0 0.00 0.00 0.00 41 1013.6
20260901224527 36 349 0.0 4.8 0.00 0.00 0.00 41 1013.5
20260901223042 36 182 0.0 4.8 0.00 0.00 0.00 43 1013.6
20260901221530 37 219 1.6 12.9 0.00 0.00 0.00 41 1013.6
20260901220014 36 169 1.6 6.4 0.00 0.00 0.00 40 1013.7
20260901214516 36 70 0.0 6.4 0.00 0.00 0.00 41 1013.7
20260901213033 37 115 0.0 6.4 0.00 0.00 0.00 40 1013.8
20260901211530 36 123 1.6 8.0 0.00 0.00 0.00 41 1013.9
20260901210038 34 53 0.0 6.4 0.00 0.00 0.00 46 1014.1
20260901204520 37 49 1.6 6.4 0.00 0.00 0.00 41 1014.3
20260901203035 37 34 1.6 8.0 0.00 0.00 0.00 38 1014.5
20260901201531 37 248 1.6 4.8 0.00 0.00 0.00 41 1014.7
20260901200043 36 114 1.6 6.4 0.00 0.00 0.00 41 1015.0
20260901194547 36 255 0.0 6.4 0.00 0.00 0.00 43 1015.2
20260901193018 37 336 0.0 4.8 0.00 0.00 0.00 41 1015.4
20260901191530 36 223 1.6 4.8 0.00 0.00 0.00 41 1015.7
20260901190032 36 351 1.6 3.2 0.00 0.00 0.00 44 1015.8
20260901184530 35 5 0.0 4.8 0.00 0.00 0.00 47 1016.1
20260901183038 36 352 1.6 6.4 0.00 0.00 0.00 46 1016.3
20260901181522 33 352 0.0 4.8 0.00 0.00 0.00 52 1016.7
20260901180032 35 315 0.0 11.3 0.00 0.00 0.00 49 1016.9
20260901174505 35 279 0.0 4.8 0.00 0.00 0.00 48 1017.1
20260901173011 34 62 3.2 8.0 0.00 0.00 0.00 49 1017.3
20260901171517 34 154 0.0 4.8 0.00 0.00 0.00 50 1017.5
20260901170101 34 165 0.0 3.2 0.00 0.00 0.00 51 1017.7
20260901164512 33 352 1.6 4.8 0.00 0.00 0.00 51 1017.6
20260901163016 33 18 0.0 6.4 0.00 0.00 0.00 56 1017.7
20260901161515 32 73 0.0 4.8 0.00 0.00 0.00 58 1017.9
20260901160032 31 247 0.0 3.2 0.00 0.00 0.00 63 1017.8
20260901154527 30 43 0.0 3.2 0.00 0.00 0.00 65 1017.8
20260901153010 29 249 0.0 3.2 0.00 0.00 0.00 68 1017.7
20260901151514 28 219 0.0 6.4 0.00 0.00 0.00 69 1017.6
20260901150021 28 307 0.0 3.2 0.00 0.00 0.00 73 1017.8
20260901144527 27 187 0.0 4.8 0.00 0.00 0.00 77 1017.8
20260901143030 27 252 1.6 3.2 0.00 0.00 0.00 80 1018.1
20260901141510 26 176 0.0 3.2 0.00 0.00 0.00 82 1018.2
20260901140021 26 334 0.0 8.0 0.00 0.00 0.00 83 1018.3
20260901134524 25 269 0.0 1.6 0.00 0.00 0.00 1018.1
20260901133026 25 325 0.0 1.6 0.00 0.00 0.00 89 1017.9
20260901131537 24 273 0.0 0.0 0.00 0.00 0.00 90 1017.9
20260901130019 23 273 0.0 0.0 0.00 0.00 0.00 90 1017.6
20260901124522 23 273 0.0 0.0 0.00 0.00 0.00 90 1017.4